| time (UTC) | temp F | wind direction | speed MPH | gust MPH | rain 1hr in | rain 24hr in | rain mn in | humidity % | barometer mb |
| 20260504184558 | 69 | 238 | 5.0 | 17.0 | 0.00 | 0.00 | 0.00 | 42 | 1005.0 |
| 20260504183105 | 70 | 237 | 7.0 | 19.0 | 0.00 | 0.00 | 0.00 | 41 | 1005.1 |
| 20260504181600 | 69 | 223 | 10.0 | 22.0 | 0.00 | 0.00 | 0.00 | 44 | 1005.2 |
| 20260504180112 | 68 | 215 | 11.0 | 20.0 | 0.00 | 0.00 | 0.00 | 46 | 1005.1 |
| 20260504174557 | 68 | 225 | 5.0 | 17.0 | 0.00 | 0.00 | 0.00 | 45 | 1005.2 |
| 20260504173100 | 67 | 192 | 7.0 | 22.0 | 0.00 | 0.00 | 0.00 | 46 | 1005.4 |
| 20260504171558 | 67 | 196 | 6.0 | 16.0 | 0.00 | 0.00 | 0.00 | 48 | 1005.4 |
| 20260504160104 | 64 | 177 | 11.0 | 18.0 | 0.00 | 0.00 | 0.00 | 50 | 1005.9 |
| 20260504140104 | 58 | 295 | 11.0 | 21.0 | 0.00 | 0.00 | 0.00 | 53 | 1006.5 |
| 20260504100104 | 49 | 203 | 12.0 | 22.0 | 0.00 | 0.00 | 0.00 | 57 | 1006.6 |
| 20260504081600 | 49 | 176 | 7.0 | 17.0 | 0.00 | 0.00 | 0.00 | 57 | 1007.4 |
| 20260504080109 | 49 | 171 | 7.0 | 14.0 | 0.00 | 0.00 | 0.00 | 57 | 1007.6 |
| 20260504050107 | 49 | 207 | 5.0 | 12.0 | 0.00 | 0.00 | 0.00 | 56 | 1008.4 |
| 20260504044601 | 50 | 249 | 5.0 | 12.0 | 0.00 | 0.00 | 0.00 | 56 | 1008.6 |
| 20260504043058 | 49 | 202 | 3.0 | 9.0 | 0.00 | 0.00 | 0.00 | 57 | 1008.6 |
| 20260504041605 | 50 | 205 | 3.0 | 9.0 | 0.00 | 0.00 | 0.00 | 56 | 1008.6 |
| 20260504034555 | 52 | 200 | 5.0 | 15.0 | 0.00 | 0.00 | 0.00 | 54 | 1008.7 |
| 20260504033055 | 52 | 225 | 5.0 | 14.0 | 0.00 | 0.00 | 0.00 | 54 | 1008.7 |
| 20260504031558 | 52 | 233 | 6.0 | 13.0 | 0.00 | 0.00 | 0.00 | 55 | 1008.6 |
| 20260504030058 | 51 | 269 | 5.0 | 16.0 | 0.00 | 0.00 | 0.00 | 56 | 1008.6 |
| 20260504024615 | 52 | 225 | 6.0 | 15.0 | 0.00 | 0.00 | 0.00 | 55 | 1008.6 |
| 20260504023055 | 52 | 205 | 8.0 | 18.0 | 0.00 | 0.00 | 0.00 | 55 | 1008.6 |
| 20260504021557 | 53 | 258 | 6.0 | 21.0 | 0.00 | 0.00 | 0.00 | 54 | 1008.9 |
| 20260504020058 | 53 | 259 | 8.0 | 30.0 | 0.00 | 0.00 | 0.00 | 53 | 1008.9 |
| 20260504014605 | 52 | 213 | 5.0 | 15.0 | 0.00 | 0.00 | 0.00 | 53 | 1009.0 |
| 20260504013057 | 52 | 294 | 6.0 | 16.0 | 0.00 | 0.00 | 0.00 | 53 | 1008.8 |
| 20260504011557 | 52 | 229 | 8.0 | 22.0 | 0.00 | 0.00 | 0.00 | 53 | 1009.0 |
| 20260504010104 | 52 | 234 | 5.0 | 16.0 | 0.00 | 0.00 | 0.00 | 53 | 1009.2 |
| 20260504004601 | 52 | 248 | 9.0 | 19.0 | 0.00 | 0.00 | 0.00 | 53 | 1009.2 |
| 20260504003057 | 52 | 232 | 7.0 | 24.0 | 0.00 | 0.00 | 0.00 | 51 | 1009.3 |
| 20260504001556 | 52 | 252 | 8.0 | 19.0 | 0.00 | 0.00 | 0.00 | 49 | 1008.9 |
| 20260504000135 | 52 | 223 | 7.0 | 18.0 | 0.00 | 0.00 | 0.00 | 49 | 1008.9 |
| 20260503234601 | 52 | 234 | 4.0 | 27.0 | 0.00 | 0.00 | 0.00 | 50 | 1008.9 |
| 20260503233055 | 53 | 252 | 8.0 | 21.0 | 0.00 | 0.00 | 0.00 | 48 | 1008.9 |
| 20260503231555 | 54 | 205 | 11.0 | 23.0 | 0.00 | 0.00 | 0.00 | 47 | 1008.6 |
| 20260503230055 | 54 | 278 | 9.0 | 23.0 | 0.00 | 0.00 | 0.00 | 46 | 1008.6 |
| 20260503224558 | 55 | 214 | 6.0 | 15.0 | 0.00 | 0.00 | 0.00 | 43 | 1008.4 |
| 20260503223057 | 55 | 227 | 8.0 | 22.0 | 0.00 | 0.00 | 0.00 | 41 | 1008.3 |
| 20260503221559 | 55 | 263 | 7.0 | 19.0 | 0.00 | 0.00 | 0.00 | 43 | 1008.5 |
| 20260503220057 | 55 | 305 | 7.0 | 17.0 | 0.00 | 0.00 | 0.00 | 43 | 1008.2 |
| 20260503214619 | 55 | 248 | 6.0 | 18.0 | 0.00 | 0.00 | 0.00 | 43 | 1008.6 |
| 20260503213111 | 56 | 302 | 8.0 | 19.0 | 0.00 | 0.00 | 0.00 | 39 | 1008.3 |
| 20260503211619 | 56 | 248 | 6.0 | 16.0 | 0.00 | 0.00 | 0.00 | 41 | 1008.3 |
| 20260503210101 | 56 | 270 | 6.0 | 15.0 | 0.00 | 0.00 | 0.00 | 43 | 1008.3 |
| 20260503204559 | 55 | 210 | 4.0 | 11.0 | 0.00 | 0.00 | 0.00 | 44 | 1008.4 |
| 20260503203110 | 54 | 207 | 4.0 | 11.0 | 0.00 | 0.00 | 0.00 | 45 | 1008.8 |
| 20260503201557 | 54 | 238 | 5.0 | 12.0 | 0.00 | 0.00 | 0.00 | 45 | 1009.0 |
| 20260503200058 | 53 | 229 | 3.0 | 10.0 | 0.00 | 0.00 | 0.00 | 46 | 1009.3 |
| 20260503194559 | 53 | 229 | 6.0 | 14.0 | 0.00 | 0.00 | 0.00 | 47 | 1009.5 |
| 20260503193057 | 54 | 234 | 5.0 | 14.0 | 0.00 | 0.00 | 0.00 | 46 | 1009.7 |
| 20260503191604 | 53 | 273 | 6.0 | 11.0 | 0.00 | 0.00 | 0.00 | 48 | 1009.9 |
| 20260503190059 | 52 | 230 | 7.0 | 19.0 | 0.00 | 0.00 | 0.00 | 45 | 1010.0 |